Погода в Манхеттене

США     39°10′43″N   96°33′42″W
темп.,
°C
ветер,
м/с
пор.,
м/с
влажн.,
%
обл.,
%
осадки,
мм/ч
давл.,
гПа
погр.,
м
7 июля, чт
чт701:00+24в49955 0.0 1011222
04:00+23в22949 0.0 101050
07:00+25з267987 0.0 1010157
10:00+27юз127997 0.0 101133
13:00+32ю345337 0.0 10111121
16:00+34ю45485 0.0 10091557
19:00+33юв45557 0.0 1007318
22:00+28с237299 0.0 101057
8 июля, пт
пт801:00+24з2394100 4.1 101277
04:00+23з3694100 0.1 1011178
07:00+23с279645 0.1 1013249
10:00+27с57735 0.0 1015731
13:00+31ссв55542 0.0 10151475
16:00+33ссв45453 0.0 10142068
19:00+30св67615 0.0 1014788
22:00+24всв410830 0.0 1016283
9 июля, сб
сб901:00+22всв239474 0.0 101848
04:00+21всв239825 0.0 101864
07:00+22всв3595100 0.0 1019317
10:00+24в558585 0.0 1020501
13:00+29вюв446013 0.0 10191187
16:00+31в44540 0.0 10181314
19:00+30вюв45600 0.0 10171103
22:00+23вюв49820 0.0 1018175
10 июля, вс
вс1001:00+21юв499224 0.0 1019186
04:00+19юв310955 0.0 1018226
07:00+19ююв310945 0.0 1017272
10:00+26ю46673 0.0 1017595
13:00+32ю66480 0.0 1015995
16:00+34ю67400 0.0 10121301
19:00+32ю79520 0.0 1010733
22:00+25юв411790 0.0 1011207
11 июля, пн
пн1101:00+24ю397159 0.0 1011178
04:00+22ю3676100 0.0 1011103
07:00+22юв3476100 0.0 101177
10:00+29ююв34554 0.0 1011471
13:00+35ю44412 0.0 10101233
16:00+37юв4436100 0.0 10091976
19:00+34ююв5749100 0.0 1009691
22:00+26ссз3580100 1.4 1012122